(197855) = 2004 QK11

Discovered at Siding Spring on 2004-08-21 by Siding Spring Survey.

Orbit

Orbit type: Main Belt

Note: WebGL enabled browser required.

epoch2023-02-25.0
epoch JD2460000.5
perihelion date2020-04-21.12575
perihelion JD2458960.62575
argument of perihelion (°)274.55625
ascending node (°)59.51373
inclination (°)5.35152
eccentricity0.1880372
perihelion distance (AU)2.0162118
Tisserand w.r.t. Jupiter3.4
ΔV w.r.t. Earth (km/sec)9.0
semimajor axis (AU)2.4831332
mean anomaly (°)261.92964
mean daily motion (°/day)0.25188590
aphelion distance (AU)2.950
period (years)3.91
P-vector [x]0.89558450
P-vector [y]-0.36218595
P-vector [z]-0.25835971
Q-vector [x]0.43757143
Q-vector [y]0.82200981
Q-vector [z]0.36446004
absolute magnitude16.63
phase slope0.15
uncertainty0
referenceMPO 745323
observations used563
oppositions16
arc length (days)7851
first opposition used2001
last opposition used2023
residual rms (arc-secs)0.75
perturbers coarse indicatorM-v
perturbers precise indicator003Ek
first observation date used2001-12-20.0
last observation date used2023-06-19.0
computer nameMPCLINUX
JD of orbit computation2456700.396356
perihelion JD uncertainty (days)4.9473E-05
argument of perihelion uncertainty (°)7.4369E-05
ascending node uncertainty (°)7.3182E-05
inclination uncertainty (°)5.0548E-06
eccentricity uncertainty 8.1578E-08
perihelion distance uncertainty (AU)1.9867E-07
Minimum Orbit Intersection Distances (in AU)
for orbit epoch: 2460000.5, reference: E2023-M63
Mercury1.61015
Venus1.28909
Earth1.01346
Mars0.64315
Jupiter2.4248
Saturn6.28751
Uranus15.5098
Neptune27.458

Observations

573 total observations over interval: 2001 12 20.266290 – 2023 06 19.316141
These data are available for download (format description).

Date (UT) J2000 RA J2000 Dec Magn Location Ref
2001 12 20.266290 07 46 04.207 +27 01 33.48 20.79 V 645 – Apache Point-Sloan Digital Sky Survey MPS 158961
2001 12 20.269762 07 46 04.020 +27 01 34.44 21.66   645 – Apache Point-Sloan Digital Sky Survey MPS 158961
2004 08 08.29554 22 55 04.23 -18 05 54.7 18.5   704 – Lincoln Laboratory ETS, New Mexico MPS 112260
2004 08 08.30487 22 55 03.99 -18 05 57.8 19.1   704 – Lincoln Laboratory ETS, New Mexico MPS 112260
2004 08 08.31432 22 55 03.64 -18 06 01.3 19.2   704 – Lincoln Laboratory ETS, New Mexico MPS 112260
2004 08 08.32371 22 55 03.32 -18 06 04.5 19.3   704 – Lincoln Laboratory ETS, New Mexico MPS 112260
2004 08 08.33305 22 55 02.92 -18 06 07.9 19.2   704 – Lincoln Laboratory ETS, New Mexico MPS 112260
2004 08 08.37314 22 55 01.69 -18 06 21.5 18.2   644 – Palomar Mountain/NEAT MPS 112260
2004 08 08.37558 22 55 01.57 -18 06 22.1 17.9   644 – Palomar Mountain/NEAT MPS 112260
2004 08 08.40253 22 55 00.67 -18 06 31.5 18.2   644 – Palomar Mountain/NEAT MPS 112260
2004 08 08.40502 22 55 00.56 -18 06 32.1 18.1   644 – Palomar Mountain/NEAT MPS 112260
2004 08 08.43207 22 54 59.65 -18 06 41.5 18.1   644 – Palomar Mountain/NEAT MPS 112260
2004 08 08.43454 22 54 59.54 -18 06 42.6 18.0   644 – Palomar Mountain/NEAT MPS 112260
2004 08 21.65361 22 45 55.86 -19 21 45.3 18.1 R E12 – Siding Spring Survey MPS 112260
2004 08 21.66491 22 45 55.23 -19 21 48.4 18.0 R E12 – Siding Spring Survey MPS 112260
2004 08 21.67620 22 45 54.67 -19 21 52.4 18.4 R E12 – Siding Spring Survey MPS 112260
2004 08 21.68750 22 45 54.08 -19 21 55.9 18.4 R E12 – Siding Spring Survey MPS 112260
2004 08 23.27129 22 44 36.53 -19 30 16.3 17.9 R 699 – Lowell Observatory-LONEOS MPS 112260
2004 08 23.28587 22 44 35.75 -19 30 21.0   699 – Lowell Observatory-LONEOS MPS 112260
2004 08 23.30046 22 44 34.98 -19 30 26.0   699 – Lowell Observatory-LONEOS MPS 112260
2004 08 23.31503 22 44 34.12 -19 30 30.7   699 – Lowell Observatory-LONEOS MPS 112260
2004 09 07.23525 22 31 50.75 -20 27 12.0 19.2   704 – Lincoln Laboratory ETS, New Mexico MPS 112787
2004 09 07.24628 22 31 50.25 -20 27 14.5 19.5   704 – Lincoln Laboratory ETS, New Mexico MPS 112787
2004 09 07.25741 22 31 49.57 -20 27 14.3 19.4   704 – Lincoln Laboratory ETS, New Mexico MPS 112787
2004 09 07.26844 22 31 48.97 -20 27 16.0 19.8   704 – Lincoln Laboratory ETS, New Mexico MPS 112787
2004 09 07.27947 22 31 48.41 -20 27 17.8 19.4   704 – Lincoln Laboratory ETS, New Mexico MPS 112787
2004 09 07.88754 22 31 18.93 -20 28 38.5 18.4 R 615 – St. Veran MPS 112787
2004 09 07.90967 22 31 17.79 -20 28 40.7 18.6 R 615 – St. Veran MPS 112787
2004 09 07.93181 22 31 16.62 -20 28 43.5 18.6 R 615 – St. Veran MPS 112787
2004 09 07.95405 22 31 15.50 -20 28 47.0 18.6 R 615 – St. Veran MPS 112787
2004 09 16.56737 22 24 54.65 -20 37 34.0 18.5 R E12 – Siding Spring Survey MPS 113007
2004 09 16.57589 22 24 54.30 -20 37 33.3 18.1 R E12 – Siding Spring Survey MPS 113007
2004 09 16.58449 22 24 53.91 -20 37 33.5 18.6 R E12 – Siding Spring Survey MPS 113007
2004 09 16.59306 22 24 53.63 -20 37 33.1 18.9 R E12 – Siding Spring Survey MPS 113007
2004 09 17.23452 22 24 29.25 -20 37 36.2 18.4 R 699 – Lowell Observatory-LONEOS MPS 114410
2004 09 17.24670 22 24 28.75 -20 37 36.2   699 – Lowell Observatory-LONEOS MPS 114410
2004 09 17.25886 22 24 28.25 -20 37 36.2   699 – Lowell Observatory-LONEOS MPS 114410
2004 09 17.27101 22 24 27.74 -20 37 36.4   699 – Lowell Observatory-LONEOS MPS 114410
2004 09 21.17051 22 22 12.77 -20 34 47.2 19.3   704 – Lincoln Laboratory ETS, New Mexico MPS 114410
2004 09 21.18232 22 22 12.30 -20 34 46.1 19.5   704 – Lincoln Laboratory ETS, New Mexico MPS 114410
2004 09 21.19412 22 22 11.92 -20 34 45.6 19.6   704 – Lincoln Laboratory ETS, New Mexico MPS 114410
2004 09 21.20591 22 22 11.49 -20 34 44.7 19.4   704 – Lincoln Laboratory ETS, New Mexico MPS 114410
2004 09 21.21778 22 22 11.10 -20 34 43.6 19.6   704 – Lincoln Laboratory ETS, New Mexico MPS 114410
2004 10 09.11815 22 17 47.99 -19 35 31.8 19.4   644 – Palomar Mountain/NEAT MPS 116645
2004 10 09.13978 22 17 48.01 -19 35 25.2 19.3   644 – Palomar Mountain/NEAT MPS 116645
2004 10 09.16161 22 17 48.02 -19 35 18.5 19.2   644 – Palomar Mountain/NEAT MPS 116645
2005 12 25.40162 08 22 56.55 +25 52 39.4 20.3 V 691 – Steward Observatory, Kitt Peak-Spacewatch MPS 158961
2005 12 25.41891 08 22 55.74 +25 52 44.8 20.6 V 691 – Steward Observatory, Kitt Peak-Spacewatch MPS 158961
2005 12 25.43620 08 22 54.91 +25 52 49.8 20.6 V 691 – Steward Observatory, Kitt Peak-Spacewatch MPS 158961
2006 01 06.30917 08 12 06.60 +26 50 04.0 20.5 V 691 – Steward Observatory, Kitt Peak-Spacewatch MPS 158961
2006 01 06.32989 08 12 05.28 +26 50 09.5 20.6 V 691 – Steward Observatory, Kitt Peak-Spacewatch MPS 158961
2006 01 06.34719 08 12 04.20 +26 50 13.8 20.9 V 691 – Steward Observatory, Kitt Peak-Spacewatch MPS 158961
2007 03 11.43087 13 37 34.26 -04 01 02.7 21.1 V 691 – Steward Observatory, Kitt Peak-Spacewatch MPS 203037
2007 03 11.44847 13 37 33.67 -04 00 59.1 20.8 V 691 – Steward Observatory, Kitt Peak-Spacewatch MPS 203037
2007 03 11.46607 13 37 33.09 -04 00 55.1 20.7 V 691 – Steward Observatory, Kitt Peak-Spacewatch MPS 203037
2007 04 25.22293 13 00 27.28 -00 54 43.4 19.8 V G96 – Mt. Lemmon Survey MPS 208060
2007 04 25.22785 13 00 27.03 -00 54 42.0 20.5 V G96 – Mt. Lemmon Survey MPS 208060
2007 04 25.23281 13 00 26.74 -00 54 41.6 20.2 V G96 – Mt. Lemmon Survey MPS 208060
2007 04 25.23772 13 00 26.53 -00 54 40.5 20.4 V G96 – Mt. Lemmon Survey MPS 208060
2007 05 16.17568 12 46 31.80 -00 20 38.4 20.5 V G96 – Mt. Lemmon Survey MPS 208904
2007 05 16.18131 12 46 31.62 -00 20 38.3 20.9 V G96 – Mt. Lemmon Survey MPS 208904
2007 05 16.18694 12 46 31.44 -00 20 38.2 20.8 V G96 – Mt. Lemmon Survey MPS 208904
2007 05 16.19253 12 46 31.29 -00 20 38.2 20.9 V G96 – Mt. Lemmon Survey MPS 208904
2008 09 06.31380 00 02 20.50 -10 27 30.5 18.7 V 703 – Catalina Sky Survey MPS 255839
2008 09 06.32023 00 02 20.22 -10 27 32.4 18.7 V 703 – Catalina Sky Survey MPS 255839
2008 09 06.32668 00 02 19.86 -10 27 34.1 18.5 V 703 – Catalina Sky Survey MPS 255839
2008 09 06.33314 00 02 19.53 -10 27 35.8 18.6 V 703 – Catalina Sky Survey MPS 255839
2008 09 23.23018 23 47 45.55 -11 30 32.1 18.6   704 – Lincoln Laboratory ETS, New Mexico MPS 256664
2008 09 23.24222 23 47 44.85 -11 30 32.6 19.3   704 – Lincoln Laboratory ETS, New Mexico MPS 256664
2008 09 23.25453 23 47 44.12 -11 30 34.1 19.4   704 – Lincoln Laboratory ETS, New Mexico MPS 256664
2008 09 23.26702 23 47 43.47 -11 30 36.7 19.3   704 – Lincoln Laboratory ETS, New Mexico MPS 256664
2008 09 23.27915 23 47 42.83 -11 30 39.2 19.0   704 – Lincoln Laboratory ETS, New Mexico MPS 256664
2008 10 01.26909 23 41 05.35 -11 43 38.7 18.9 V 703 – Catalina Sky Survey MPS 257899
2008 10 01.27458 23 41 04.99 -11 43 39.9 18.9 V 703 – Catalina Sky Survey MPS 257899
2008 10 01.27999 23 41 04.84 -11 43 40.1 19.1 V 703 – Catalina Sky Survey MPS 257899
2008 10 01.28551 23 41 04.56 -11 43 40.2 19.3 V 703 – Catalina Sky Survey MPS 257899
2010 01 23.10902 08 34 22.57 +26 18 23.4 20.3 R 152 – Moletai Astronomical Observatory MPS 1408450
2010 01 23.13382 08 34 20.95 +26 18 29.4 20.2 R 152 – Moletai Astronomical Observatory MPS 1161344
2010 01 23.99572 08 33 26.09 +26 22 14.9 19.8 R 152 – Moletai Astronomical Observatory MPS 879845
2010 01 24.04045 08 33 23.19 +26 22 26.3 20.0 R 152 – Moletai Astronomical Observatory MPS 879845
2011 03 25.35643 14 03 43.35 -07 16 23.4 20.4 V 691 – Steward Observatory, Kitt Peak-Spacewatch MPS 376922
2011 03 25.37416 14 03 42.61 -07 16 20.7 20.7 V 691 – Steward Observatory, Kitt Peak-Spacewatch MPS 376922
2011 03 25.39193 14 03 41.89 -07 16 16.7 20.7 V 691 – Steward Observatory, Kitt Peak-Spacewatch MPS 376922
2011 05 07.22215 13 26 07.15 -04 41 46.3 20.1 V G96 – Mt. Lemmon Survey MPS 382949
2011 05 07.23090 13 26 06.68 -04 41 44.9 20.5 V G96 – Mt. Lemmon Survey MPS 382949
2011 05 07.23970 13 26 06.25 -04 41 43.7 20.3 V G96 – Mt. Lemmon Survey MPS 382949
2011 05 07.24838 13 26 05.82 -04 41 42.6 20.4 V G96 – Mt. Lemmon Survey MPS 382949
2012 07 18.74409 00 57 20.55 -01 21 36.2 20.5 V E12 – Siding Spring Survey MPS 428612
